QPF
0.00 0.00 0.02 0.05 0.01 0.00 0.01 0.00 0.00 0.00 0.00 0.00 0.00 0.00 0.00 0.00 0.00 0.00 0.00 0.00 0.00 0.00 0.00 0.00 0.00 0.00 0.05 0.02 0.00 0.00 0.00 0.00 0.00
0.03 0.06 0.10 0.10 0.02 0.02 0.03 0.00 0.00 0.00 0.00 0.00 0.00 0.00 0.00 0.00 0.00 0.00 0.00 0.00 0.00 0.00 0.00 0.00 0.00 0.01 0.01 0.01 0.01 0.00 0.00 0.00 0.00
0.03 0.23 0.15 0.10 0.08 0.04 0.01 0.01 0.00 0.00 0.00 0.00 0.00 0.00 0.00 0.00 0.00 0.00 0.00 0.00 0.00 0.00 0.00 0.00 0.00 0.03 0.09 0.08 0.01 0.05 0.02 0.00 0.00
0.00 0.01 0.02 0.02 0.09 0.10 0.01 0.02 0.00 0.00 0.01 0.03 0.02 0.03 0.01 0.01 0.00 0.00 0.00 0.00 0.00 0.00 0.00 0.00 0.00 0.00 0.01 0.11 0.03 0.10 0.05 0.00 0.00
0.00 0.00 0.00 0.00 0.01 0.09 0.10 0.17 0.33 0.18 0.02 0.08 0.16 0.06 0.05 0.09 0.12 0.02 0.00 0.00 0.00 0.00 0.00 0.00 0.00 0.00 0.00 0.00 0.01 0.08 0.04 0.01 0.00
0.00 0.00 0.00 0.00 0.00 0.02 0.08 0.17 0.13 0.18 0.20 0.16 0.05 0.08 0.14 0.22 0.22 0.13 0.04 0.00 0.00 0.00 0.00 0.00 0.00 0.00 0.00 0.00 0.00 0.02 0.04 0.06 0.05
0.00 0.00 0.00 0.00 0.00 0.00 0.01 0.04 0.07 0.10 0.25 0.38 0.25 0.07 0.09 0.13 0.17 0.12 0.10 0.08 0.04 0.01 0.00 0.00 0.00 0.00 0.00 0.00 0.00 0.00 0.01 0.07 0.04
0.00 0.00 0.00 0.00 0.00 0.00 0.00 0.00 0.00 0.00 0.05 0.11 0.16 0.33 0.30 0.19 0.13 0.17 0.11 0.12 0.07 0.08 0.01 0.00 0.00 0.00 0.00 0.00 0.00 0.00 0.00 0.00 0.01
0.00 0.00 0.00 0.00 0.00 0.00 0.00 0.00 0.00 0.00 0.00 0.01 0.08 0.10 0.24 0.31 0.22 0.24 0.17 0.20 0.14 0.08 0.07 0.05 0.00 0.00 0.00 0.00 0.00 0.00 0.00 0.00 0.00
0.00 0.00 0.00 0.00 0.00 0.00 0.00 0.00 0.00 0.00 0.00 0.00 0.00 0.01 0.09 0.17 0.23 0.31 0.45 0.46 0.35 0.15 0.16 0.20 0.22 0.08 0.02 0.00 0.00 0.01 0.03 0.01 0.00
0.00 0.00 0.00 0.00 0.00 0.00 0.00 0.00 0.00 0.00 0.00 0.00 0.00 0.00 0.00 0.02 0.09 0.18 0.24 0.27 0.40 0.56 0.57 0.45 0.37 0.45 0.26 0.15 0.08 0.04 0.05 0.08 0.01
0.00 0.00 0.00 0.00 0.00 0.00 0.00 0.00 0.00 0.00 0.00 0.00 0.00 0.00 0.00 0.00 0.00 0.01 0.04 0.06 0.10 0.36 0.59 0.63 0.50 0.42 0.50 0.35 0.27 0.22 0.19 0.20 0.09
0.00 0.00 0.00 0.00 0.00 0.00 0.00 0.00 0.00 0.00 0.00 0.00 0.00 0.00 0.00 0.00 0.00 0.00 0.00 0.00 0.02 0.16 0.17 0.13 0.12 0.17 0.21 0.27 0.35 0.30 0.21 0.21 0.17
0.00 0.00 0.00 0.00 0.00 0.00 0.00 0.00 0.00 0.00 0.00 0.00 0.00 0.00 0.00 0.00 0.00 0.00 0.00 0.00 0.00 0.00 0.00 0.00 0.00 0.00 0.01 0.05 0.16 0.25 0.22 0.23 0.19
0.00 0.00 0.00 0.00 0.00 0.00 0.00 0.00 0.00 0.00 0.00 0.00 0.00 0.00 0.00 0.00 0.00 0.00 0.00 0.00 0.00 0.00 0.00 0.00 0.00 0.00 0.00 0.01 0.06 0.14 0.24 0.25 0.20
0.00 0.00 0.00 0.00 0.00 0.00 0.00 0.00 0.00 0.00 0.00 0.00 0.00 0.00 0.00 0.00 0.00 0.00 0.00 0.00 0.00 0.00 0.00 0.01 0.00 0.00 0.00 0.00 0.01 0.07 0.16 0.20 0.15
0.00 0.00 0.00 0.00 0.00 0.00 0.00 0.00 0.00 0.00 0.00 0.00 0.00 0.00 0.00 0.00 0.00 0.00 0.00 0.00 0.00 0.00 0.00 0.02 0.04 0.04 0.02 0.01 0.03 0.10 0.18 0.20 0.23
0.00 0.00 0.00 0.00 0.00 0.00 0.00 0.00 0.00 0.00 0.00 0.00 0.00 0.00 0.00 0.00 0.00 0.00 0.00 0.00 0.00 0.00 0.00 0.01 0.01 0.03 0.07 0.06 0.08 0.09 0.07 0.05 0.09
0.00 0.00 0.00 0.00 0.00 0.00 0.00 0.00 0.00 0.00 0.00 0.00 0.00 0.00 0.00 0.00 0.00 0.00 0.00 0.00 0.00 0.00 0.00 0.00 0.00 0.00 0.02 0.12 0.10 0.09 0.07 0.07 0.05
0.00 0.00 0.00 0.00 0.00 0.00 0.00 0.00 0.00 0.00 0.00 0.00 0.00 0.00 0.00 0.00 0.00 0.00 0.00 0.00 0.00 0.00 0.00 0.00 0.00 0.00 0.00 0.09 0.14 0.04 0.01 0.01 0.00
MSLP
1007.14 1008.22 1009.01 1009.96 1008.68 1008.21 1008.27 1008.92 1009.04 1009.55 1010.54 1011.24 1011.68 1011.91 1012.18 1012.75 1013.22 1013.73 1014.13 1014.38 1014.44 1014.55 1014.74 1014.88 1015.08 1015.36 1015.34 1015.50 1015.50 1015.70 1016.01 1016.52 1016.81
1007.53 1009.17 1010.74 1010.51 1010.82 1009.60 1009.13 1008.90 1009.27 1009.28 1009.95 1010.60 1011.00 1011.09 1011.56 1011.81 1012.47 1012.81 1013.22 1013.71 1013.98 1014.05 1014.16 1014.42 1014.59 1014.76 1015.08 1015.19 1015.28 1015.40 1015.79 1016.07 1016.24
1008.89 1010.19 1011.29 1013.03 1011.63 1009.86 1009.09 1008.97 1009.27 1009.87 1010.42 1010.92 1010.73 1010.65 1010.52 1010.95 1011.21 1011.99 1012.38 1012.83 1013.42 1013.56 1013.57 1013.80 1014.08 1014.37 1014.71 1014.85 1014.94 1015.15 1015.53 1015.78 1015.97
1010.03 1010.31 1011.54 1012.15 1010.74 1010.18 1009.48 1008.43 1008.25 1009.19 1009.02 1009.99 1011.13 1010.93 1011.01 1011.50 1010.98 1011.22 1011.81 1012.04 1012.37 1012.81 1013.06 1013.16 1013.47 1013.76 1014.10 1014.50 1014.74 1014.80 1015.18 1015.42 1015.68
1011.08 1010.96 1011.57 1011.51 1011.64 1010.82 1010.43 1010.04 1009.96 1009.21 1010.39 1011.87 1011.27 1010.78 1010.03 1011.44 1011.56 1011.30 1011.37 1011.63 1011.63 1012.02 1012.33 1012.56 1012.74 1013.06 1013.44 1013.72 1013.99 1014.37 1014.66 1015.01 1015.14
1011.15 1011.30 1011.67 1011.79 1011.62 1011.26 1011.07 1010.97 1011.15 1011.69 1012.02 1011.62 1012.18 1010.67 1010.60 1010.94 1011.31 1011.01 1010.87 1010.94 1010.95 1011.29 1011.64 1011.87 1012.08 1012.41 1012.70 1013.04 1013.29 1013.63 1014.03 1014.28 1014.59
1011.38 1011.64 1012.10 1012.25 1012.17 1011.72 1011.65 1011.27 1011.44 1012.57 1012.39 1012.31 1011.79 1009.78 1009.60 1010.58 1010.41 1010.10 1009.98 1009.84 1010.03 1010.32 1010.76 1011.13 1011.23 1011.39 1011.70 1012.08 1012.40 1012.77 1013.10 1013.49 1013.78
1011.71 1011.67 1011.68 1011.80 1012.06 1012.47 1012.08 1011.67 1011.64 1011.73 1012.22 1011.99 1011.74 1011.48 1010.80 1009.83 1009.73 1009.27 1008.95 1009.39 1009.41 1009.38 1009.81 1009.82 1009.86 1010.41 1010.73 1011.07 1011.45 1011.78 1012.17 1012.55 1012.86
1011.93 1011.90 1011.87 1011.85 1012.01 1012.25 1012.26 1011.96 1011.56 1011.39 1011.53 1011.70 1011.53 1011.13 1010.54 1009.79 1008.37 1009.06 1008.67 1008.25 1008.52 1008.62 1008.34 1008.66 1008.92 1009.25 1009.65 1010.16 1010.39 1010.64 1011.15 1011.69 1012.19
1012.16 1012.02 1011.90 1011.87 1011.94 1011.90 1011.82 1011.83 1011.62 1011.52 1011.19 1010.93 1010.97 1010.80 1010.23 1009.69 1009.37 1009.20 1009.06 1008.65 1007.80 1007.78 1007.37 1007.59 1007.81 1008.48 1008.90 1009.21 1009.42 1009.86 1010.59 1011.19 1011.62
1012.53 1012.18 1012.01 1011.98 1011.93 1011.82 1011.66 1011.32 1011.09 1010.89 1010.64 1010.27 1009.95 1009.91 1010.17 1009.93 1009.56 1009.34 1008.96 1008.70 1008.81 1008.40 1007.07 1007.71 1008.12 1007.69 1007.94 1008.75 1008.95 1009.29 1009.71 1010.35 1010.87
1012.95 1012.77 1012.54 1012.35 1012.14 1011.85 1011.51 1011.32 1011.11 1011.07 1010.86 1010.50 1010.46 1009.88 1009.45 1009.26 1009.00 1008.78 1008.52 1008.54 1008.62 1008.51 1008.38 1007.46 1007.27 1007.58 1007.22 1008.74 1009.89 1010.19 1010.43 1011.06 1010.79
1012.92 1012.74 1012.49 1012.19 1011.81 1011.48 1011.25 1010.92 1010.68 1010.62 1010.66 1010.68 1010.44 1009.96 1009.52 1008.81 1008.49 1008.43 1008.24 1008.10 1008.35 1008.29 1008.05 1008.11 1007.54 1007.21 1005.51 1007.90 1009.82 1009.44 1009.46 1009.56 1010.51
1012.50 1012.35 1012.13 1011.78 1011.54 1011.44 1011.11 1010.70 1010.52 1010.52 1010.29 1010.00 1009.41 1009.22 1009.01 1008.71 1008.32 1008.01 1007.76 1007.77 1008.00 1008.14 1008.25 1008.17 1007.99 1007.63 1007.00 1006.67 1006.86 1006.78 1006.71 1007.90 1009.15
1012.39 1012.06 1011.65 1011.41 1011.16 1010.93 1010.48 1010.33 1010.28 1010.12 1009.82 1009.34 1009.11 1008.67 1008.36 1008.13 1007.88 1007.68 1007.45 1007.50 1007.53 1007.64 1007.72 1008.07 1008.08 1008.10 1007.56 1007.10 1006.62 1007.02 1007.74 1007.99 1008.57
1012.00 1011.52 1011.13 1010.76 1010.61 1010.35 1010.00 1009.71 1009.56 1009.48 1009.03 1008.73 1008.50 1008.24 1007.86 1007.50 1007.19 1007.07 1006.93 1006.98 1006.98 1007.10 1007.01 1007.24 1007.22 1007.21 1007.32 1006.59 1006.26 1007.02 1007.46 1008.32 1008.46
1011.56 1011.01 1010.58 1010.23 1009.97 1009.72 1009.45 1009.12 1008.84 1008.55 1008.28 1007.92 1007.78 1007.60 1007.34 1006.90 1006.48 1006.28 1006.21 1006.15 1006.12 1006.07 1006.11 1006.05 1006.03 1005.78 1005.63 1005.31 1005.37 1006.20 1007.19 1007.66 1007.67
1010.84 1010.33 1009.90 1009.66 1009.39 1009.15 1008.77 1008.39 1008.06 1007.70 1007.38 1007.13 1007.00 1006.78 1006.54 1006.20 1005.84 1005.50 1005.33 1005.20 1005.20 1005.09 1004.93 1004.86 1004.75 1004.63 1004.55 1004.64 1004.77 1005.14 1005.53 1005.50 1006.54
1010.35 1009.96 1009.50 1009.19 1008.91 1008.56 1008.05 1007.69 1007.37 1006.95 1006.57 1006.43 1006.24 1006.02 1005.64 1005.31 1004.98 1004.61 1004.47 1004.44 1004.41 1004.32 1004.30 1003.98 1004.18 1003.96 1004.05 1003.65 1003.70 1004.35 1004.46 1004.29 1004.58
1010.24 1009.79 1009.25 1008.71 1008.15 1007.65 1007.37 1007.09 1006.70 1005.95 1005.57 1005.51 1005.28 1005.09 1004.72 1004.35 1004.11 1003.88 1003.90 1003.81 1004.08 1003.98 1003.64 1003.61 1003.70 1003.80 1003.70 1004.05 1004.41 1004.86 1004.31 1003.14 1002.72
Thickness
5826 5817 5811 5804 5826 5834 5828 5824 5824 5821 5811 5802 5799 5796 5795 5791 5786 5779 5776 5776 5776 5777 5776 5776 5775 5770 5769 5769 5770 5769 5770 5769 5768
5820 5805 5794 5788 5793 5814 5821 5825 5818 5819 5815 5808 5803 5802 5796 5796 5790 5787 5782 5777 5777 5778 5778 5777 5776 5775 5771 5769 5769 5768 5767 5767 5767
5809 5802 5791 5775 5787 5810 5823 5825 5820 5813 5809 5803 5807 5806 5805 5799 5799 5791 5788 5784 5777 5777 5780 5778 5776 5773 5771 5770 5769 5768 5765 5765 5766
5797 5803 5786 5784 5797 5807 5813 5821 5822 5809 5812 5806 5798 5802 5802 5791 5793 5793 5788 5787 5784 5780 5780 5781 5778 5773 5771 5767 5766 5767 5763 5763 5764
5793 5794 5786 5787 5784 5787 5793 5797 5791 5764 5784 5775 5788 5796 5803 5791 5786 5786 5784 5783 5786 5783 5780 5781 5781 5777 5772 5770 5769 5767 5764 5762 5764
5784 5784 5780 5778 5779 5782 5782 5786 5782 5768 5766 5747 5766 5787 5789 5786 5783 5784 5785 5785 5786 5783 5780 5779 5779 5778 5774 5771 5770 5768 5765 5764 5762
5778 5776 5767 5765 5768 5773 5773 5777 5775 5758 5762 5763 5770 5791 5795 5784 5784 5787 5788 5789 5788 5787 5782 5780 5779 5779 5777 5774 5773 5771 5767 5765 5763
5764 5761 5762 5759 5756 5754 5758 5760 5760 5760 5751 5753 5756 5763 5775 5781 5783 5786 5790 5788 5788 5788 5785 5785 5785 5780 5779 5777 5774 5772 5770 5767 5765
5751 5750 5751 5749 5748 5747 5747 5749 5747 5748 5745 5738 5743 5747 5761 5772 5779 5780 5784 5788 5788 5789 5789 5788 5785 5784 5781 5777 5777 5775 5771 5768 5764
5739 5740 5740 5738 5736 5736 5735 5733 5736 5735 5737 5740 5735 5737 5744 5758 5765 5766 5768 5776 5782 5783 5786 5787 5785 5780 5779 5777 5777 5773 5767 5763 5761
5723 5725 5726 5725 5722 5721 5722 5723 5722 5723 5724 5726 5732 5732 5729 5735 5744 5750 5756 5756 5757 5758 5759 5763 5766 5775 5774 5771 5771 5769 5766 5761 5759
5709 5707 5707 5707 5708 5707 5707 5706 5706 5702 5701 5702 5701 5712 5720 5725 5731 5737 5743 5745 5744 5748 5746 5740 5754 5744 5760 5757 5749 5750 5754 5748 5752
5694 5693 5693 5692 5695 5695 5695 5694 5694 5692 5690 5686 5687 5692 5697 5711 5718 5721 5725 5731 5731 5734 5738 5740 5742 5728 5741 5734 5739 5747 5752 5754 5748
5685 5681 5680 5680 5680 5678 5680 5682 5682 5679 5679 5680 5685 5688 5690 5693 5700 5707 5713 5717 5719 5720 5722 5728 5730 5733 5741 5749 5757 5762 5764 5754 5749
5667 5667 5669 5669 5667 5667 5670 5671 5669 5669 5671 5677 5678 5682 5685 5687 5690 5694 5700 5703 5707 5710 5713 5713 5716 5718 5729 5740 5751 5751 5746 5743 5736
5657 5658 5659 5661 5661 5662 5663 5665 5664 5662 5669 5672 5673 5674 5679 5684 5685 5687 5688 5691 5697 5700 5705 5706 5710 5716 5721 5732 5739 5736 5736 5726 5726
5648 5651 5651 5653 5652 5652 5654 5657 5659 5660 5663 5667 5667 5668 5671 5676 5680 5682 5683 5685 5691 5696 5699 5704 5707 5714 5721 5730 5733 5725 5719 5721 5724
5643 5645 5648 5647 5646 5646 5650 5653 5654 5657 5659 5658 5658 5660 5663 5668 5673 5678 5679 5681 5685 5689 5697 5701 5706 5711 5716 5718 5720 5721 5721 5723 5715
5641 5640 5642 5640 5639 5639 5645 5646 5646 5650 5651 5649 5649 5652 5656 5660 5665 5672 5674 5676 5679 5683 5689 5694 5695 5702 5705 5713 5711 5709 5710 5709 5712
5633 5631 5631 5632 5634 5635 5635 5634 5636 5643 5644 5642 5643 5643 5648 5653 5656 5662 5664 5668 5669 5673 5682 5684 5688 5691 5695 5694 5691 5696 5701 5712 5716